SCP
0 0 0 0 0 0 0 0 0 0 0 0 0 0 0 0 0 0 0 0 0 0 0 0 0 0 0 0 0 0 0 0 0 0 0 0 0 0 0 0 0 0 0
0 0 0 0 0 0 0 0 0 0 0 0 0 0 0 0 0 0 0 0 0 0 0 0 0 0 0 0 0 0 0 0 0 0 0 0 0 0 0 0 0 0 0
0 0 0 0 0 0 0 0 0 0 0 0 0 0 0 0 0 0 0 0 0 0 0 0 0 0 0 0 0 0 0 0 0 0 0 0 0 0 0 0 0 0 0
0 0 0 0 0 0 0 0 0 0 0 0 0 0 0 0 0 0 0 0 0 0 0 0 0 0 0 0 0 0 0 0 0 0 0 0 0 0 0 0 0 0 0
0 0 0 0 0 0 0 0 0 0 0 0 0 0 0 0 0 0 0 0 0 0 0 0 0 0 0 0 0 0 0 0 0 0 0 0 0 0 0 0 0 0 0
0 0 0 0 0 0 0 0 0 0 0 0 0 0 0 0 0 0 0 0 0 0 0 0 0 0 0 0 0 0 0 0 0 0 0 0 0 0 0 0 0 0 0
0 0 0 0 0 0 0 0 0 0 0 0 0 0 0 0 0 0 0 0 0 0 0 0 0 0 0 0 0 0 0 0 0 0 0 0 0 0 0 0 0 0 0
0 0 0 0 0 0 0 0 0 0 0 0 0 0 0 0 0 0 0 0 0 0 0 0 0 0 0 0 0 0 0 0 0 0 0 0 0 0 0 0 0 0 0
0 0 0 0 0 0 0 0 0 0 0 0 0 0 0 0 0 0 0 0 0 0 0 0 0 0 0 0 0 0 0 0 0 0 0 0 0 0 0 0 0 0 0
0 0 0 0 0 0 0 0 0 0 0 0 0 0 0 0 0 0 0 0 0 0 0 0 0 0 0 0 0 0 0 0 0 0 0 0 0 0 0 0 0 0 0
0 0 0 0 0 0 0 0 0 0 0 0 0 0 0 0 0 0 0 0 0 0 0 0 0 0 0 0 0 0 0 0 0 0 0 0 0 0 0 0 0 0 0
0 0 0 0 0 0 0 0 0 0 0 0 0 0 0 0 0 0 0 0 0 0 0 0 0 0 0 0 0 0 0 0 0 0 0 0 0 0 0 0 0 0 0
0 0 0 0 0 0 0 0 0 0 0 0 0 0 0 0 0 0 0 0 0 0 0 0 0 0 0 0 0 0 0 0 0 0 0 0 0 0 0 0 0 0 0
0 0 0 0 0 0 0 0 0 0 0 0 0 0 0 0 0 0 0 0 0 0 0 0 0 0 0 0 0 0 0 0 0 0 0 0 0 0 0 0 0 0 0
0 0 0 0 0 0 0 0 0 0 0 0 0 0 0 0 0 0 0 0 0 0 0 0 0 0 0 0 0 0 0 0 0 0 0 0 0 0 0 0 0 0 0
0 0 0 0 0 0 0 0 0 0 0 0 0 0 0 0 0 0 0 0 0 0 0 0 0 0 0 0 0 0 0 0 0 0 0 0 0 0 0 0 0 0 0
0 0 0 0 0 0 0 0 0 0 0 0 0 0 0 0 0 0 0 0 0 0 0 0 0 0 0 0 0 0 0 0 0 0 0 0 0 0 0 0 0 0 0
0 0 0 0 0 0 0 0 0 0 0 0 0 0 0 0 0 0 0 0 0 0 0 0 0 0 0 0 0 0 0 0 0 0 0 0 0 0 0 0 0 0 0
0 0 0 0 0 0 0 0 0 0 0 0 0 0 0 0 0 0 0 0 0 0 0 0 0 0 0 0 0 0 0 0 0 0 0 0 0 0 0 0 0 0 0
0 0 0 0 0 0 0 0 0 0 0 0 0 0 0 0 0 0 0 0 0 0 0 0 0 0 0 0 0 0 0 0 0 0 0 0 0 0 0 0 0 0 0
0 0 0 0 0 0 0 0 0 0 0 0 0 0 0 0 0 0 0 0 0 0 0 0 0 0 0 0 0 0 0 0 0 0 0 0 0 0 0 0 0 0 0
0 0 0 0 0 0 0 0 0 0 0 0 0 0 0 0 0 0 0 0 0 0 0 0 0 0 0 0 0 0 0 0 0 0 0 0 0 0 0 0 0 0 0
0 0 0 0 0 0 0 0 0 0 0 0 0 0 0 0 0 0 0 0 0 0 0 0 0 0 0 0 0 0 0 0 0 0 0 0 0 0 0 0 0 0 0
0 0 0 0 0 0 0 0 0 0 0 0 0 0 0 0 0 0 0 0 0 0 0 0 0 0 0 0 0 0 0 0 0 0 0 0 0 0 0 0 0 0 0
0 0 0 0 0 0 0 0 0 0 0 0 0 0 0 0 0 0 0 0 0 0 0 0 0 0 0 0 0 0 0 0 0 0 0 0 0 0 0 0 0 0 0
0 0 0 0 0 0 0 0 0 0 0 0 0 0 0 0 0 0 0 0 0 0 0 0 0 0 0 0 0 0 0 0 0 0 0 0 0 0 0 0 0 0 0
Wind_Speed
5 6 8 7 7 7 7 8 7 7 7 8 8 9 9 9 9 9 8 8 8 8 9 8 8 8 9 9 9 10 9 9 9 9 8 8 8 7 7 5 3 7 8
5 6 8 7 7 7 8 8 7 7 7 7 8 8 9 9 8 8 8 8 8 8 8 8 9 9 9 9 10 10 10 10 9 8 6 7 8 8 7 6 6 6 7
5 6 8 7 7 7 8 8 7 7 7 7 8 8 8 8 8 8 8 8 8 8 9 9 9 9 10 10 10 10 10 9 8 5 1 5 8 8 8 7 7 6 6
5 5 6 7 7 8 8 8 8 7 7 8 8 8 7 8 8 8 8 8 8 9 9 9 9 10 10 10 10 10 10 9 7 1 3 6 6 8 7 7 7 7 7
4 5 6 6 7 8 8 8 8 7 7 7 7 7 7 7 8 8 8 8 8 9 9 9 9 9 9 9 10 10 9 8 3 2 6 5 6 7 7 8 8 7 7
4 4 6 6 7 7 8 8 8 8 7 7 7 7 7 7 8 8 8 8 8 8 9 9 9 9 9 9 9 9 9 5 2 5 5 5 6 7 8 8 7 7 7
3 4 6 6 7 7 7 7 7 8 8 7 7 7 7 7 8 8 8 8 9 9 9 9 9 9 9 9 10 9 8 4 4 6 5 6 8 8 7 8 8 8 8
4 4 6 7 7 6 6 7 7 7 8 7 7 6 7 7 7 8 8 8 9 9 9 9 9 10 9 9 10 10 8 3 5 6 6 7 9 8 8 8 8 8 8
4 4 5 6 7 7 6 6 6 6 7 7 7 6 6 7 7 8 8 8 8 9 9 9 9 9 9 10 10 9 8 4 4 5 6 6 8 8 8 9 8 8 8
3 4 4 5 6 6 6 6 5 6 6 7 7 7 7 7 7 7 7 7 8 9 9 9 9 9 9 9 9 8 5 1 5 6 4 7 8 9 9 9 8 9 9
3 3 4 4 5 5 5 6 5 5 6 7 7 7 6 5 6 5 6 6 8 9 9 9 9 9 8 9 8 6 2 3 6 5 5 8 8 8 9 8 9 9 9
4 4 4 4 4 5 4 5 4 4 4 5 5 6 5 4 4 4 7 6 8 8 8 8 8 7 4 5 6 3 2 4 4 4 6 9 8 8 9 8 8 8 8
4 4 4 4 4 4 4 4 3 3 3 4 5 6 5 4 4 4 4 5 5 6 6 6 6 4 3 3 3 3 3 3 3 4 7 9 8 8 8 8 8 8 7
5 4 4 4 4 5 4 4 4 3 3 3 3 5 4 3 3 4 3 4 4 3 4 4 3 5 4 5 4 4 4 3 3 3 7 10 9 8 8 8 8 8 8
5 5 5 5 5 5 4 3 4 4 4 4 3 3 4 4 4 4 4 3 3 3 4 4 4 5 4 4 4 4 4 4 4 4 5 9 9 8 8 8 8 8 9
6 6 5 6 6 6 5 4 3 4 4 3 3 3 4 4 4 4 4 4 3 3 3 4 4 4 4 3 4 4 4 4 4 4 4 6 9 9 9 8 9 9 10
5 5 5 5 5 6 6 5 3 3 4 4 3 3 3 4 4 4 4 4 4 4 5 4 4 3 3 4 4 4 3 3 3 4 4 3 4 8 10 9 9 9 9
5 5 4 4 5 5 5 4 3 4 4 3 3 3 4 4 5 4 4 4 4 4 4 4 4 3 3 3 3 3 3 3 3 3 3 3 3 3 7 10 9 9 9
5 5 5 5 5 5 5 4 4 4 4 3 3 3 4 4 5 4 3 3 4 4 3 3 3 3 3 3 3 2 2 2 3 3 4 4 4 4 3 6 7 9 8
4 5 5 5 5 5 4 4 3 3 3 3 3 4 4 4 5 4 3 4 4 3 4 4 4 3 3 3 3 2 2 2 2 2 2 3 3 3 3 3 3 4 7
4 4 5 5 5 5 4 4 4 4 3 3 3 4 4 4 5 5 4 4 3 3 4 5 4 5 3 2 2 2 3 2 2 1 1 1 2 2 2 2 2 2 2
5 4 4 5 6 6 4 4 3 3 3 3 3 3 4 4 4 4 5 4 4 3 4 4 4 3 2 1 1 2 3 3 3 1 1 1 1 1 1 1 2 2 2
5 5 5 5 6 5 5 4 4 3 3 3 4 4 4 4 5 4 5 4 4 4 3 3 3 4 3 2 1 1 2 2 2 3 2 1 1 1 0 0 0 1 1
6 6 6 6 6 6 6 6 7 5 5 5 4 4 5 5 4 5 4 5 5 4 4 4 3 2 3 3 2 1 1 1 1 2 3 2 1 1 1 1 1 0 1
5 5 6 6 6 6 7 7 7 6 4 4 5 6 5 5 5 5 4 4 4 4 4 4 4 3 2 2 2 2 2 1 2 2 2 2 2 2 1 2 1 1 1
3 4 5 6 6 6 7 7 7 7 6 6 7 6 5 4 4 5 5 4 4 4 4 4 4 4 3 3 2 2 2 2 2 2 2 2 2 1 2 2 2 1 1
Wind_Direction
150 148 144 145 138 143 140 133 127 121 118 124 125 124 122 117 112 108 105 101 97 96 94 93 89 87 87 88 84 83 82 78 75 69 69 71 72 77 77 72 68 87 77
149 148 143 145 142 140 139 137 132 127 119 120 126 125 123 120 116 113 110 106 103 100 97 95 92 88 87 86 83 82 81 78 76 72 74 90 77 73 75 63 44 69 78
143 144 147 146 144 138 134 137 138 135 128 122 120 122 125 124 119 115 112 107 105 101 98 95 93 90 88 87 85 83 80 78 78 74 127 96 88 75 71 68 75 77 78
141 144 149 146 148 140 137 134 136 136 134 128 123 122 124 125 123 120 115 108 104 101 98 96 94 90 89 88 86 84 82 78 75 40 89 77 82 75 71 71 74 72 72
143 148 138 149 152 143 142 137 139 136 136 133 127 123 125 125 124 121 116 109 106 102 100 99 94 92 92 91 90 88 85 82 80 78 74 71 73 72 69 69 69 71 70
149 150 141 151 154 149 146 144 142 143 139 136 134 128 129 130 126 119 115 111 109 104 101 101 99 96 94 91 90 89 86 81 135 79 72 66 69 71 68 67 70 69 68
158 155 150 150 147 150 150 150 145 148 144 139 138 137 130 129 126 122 116 115 112 108 105 104 102 100 95 91 88 87 83 57 73 78 69 64 61 64 68 66 63 62 62
166 161 155 153 146 143 151 154 152 150 150 144 140 137 129 123 123 120 117 116 117 112 108 106 103 102 97 94 90 86 77 41 86 76 68 65 54 57 62 65 62 58 55
172 166 164 161 155 147 144 152 153 150 148 144 137 131 123 115 115 118 115 115 115 116 112 107 105 103 98 94 90 84 73 28 74 70 63 58 48 56 64 63 60 59 58
180 172 167 167 166 163 156 143 145 145 141 138 132 123 119 116 111 111 115 114 115 116 112 107 103 102 96 91 88 82 72 55 74 75 60 56 49 61 66 66 63 60 60
193 185 178 170 170 168 160 148 145 142 141 146 142 133 143 147 137 127 105 107 114 113 113 110 106 102 101 94 85 81 89 77 76 64 57 47 52 64 67 68 67 63 60
205 203 189 178 173 172 161 157 159 158 163 171 165 162 159 149 136 128 107 100 108 111 113 110 109 117 129 117 104 114 97 80 76 69 56 43 53 63 67 68 67 65 62
205 208 203 188 180 176 169 169 161 159 165 169 172 168 159 149 147 149 143 138 133 134 131 128 137 128 123 109 111 106 84 79 73 71 57 40 46 57 64 67 64 63 62
209 202 205 197 188 179 177 173 171 163 166 162 170 180 166 152 153 148 146 143 144 140 134 138 137 129 124 118 114 106 100 89 78 74 60 39 40 50 60 65 65 63 62
211 205 201 201 192 180 173 175 176 168 164 157 162 178 171 158 154 152 145 146 143 140 142 140 141 134 127 118 110 104 101 93 88 83 80 52 41 49 56 59 62 63 63
215 209 200 205 192 182 179 175 174 168 155 154 157 167 171 160 157 153 148 147 144 143 141 144 136 135 128 123 117 112 105 101 90 87 82 77 54 48 53 59 62 62 61
221 210 199 201 197 186 179 175 167 167 162 156 150 157 168 161 159 156 152 150 148 148 145 142 134 131 128 129 125 117 107 101 100 90 82 76 77 61 54 58 59 57 57
217 203 198 192 199 189 176 172 168 167 165 155 151 160 162 161 161 156 156 152 150 152 152 146 145 139 138 139 129 121 117 111 107 96 90 81 71 71 67 54 52 52 51
208 195 189 192 191 182 167 168 165 162 168 157 156 164 159 164 164 158 154 152 159 157 158 151 151 150 139 133 124 119 114 109 108 105 94 80 71 65 68 68 56 47 42
194 189 181 184 182 174 161 157 151 158 161 161 158 166 167 165 166 160 150 153 160 160 161 160 146 134 128 125 121 117 107 100 107 104 102 96 84 71 61 58 64 58 42
179 184 180 178 178 177 170 168 168 173 165 164 158 158 166 163 164 166 154 155 163 163 157 157 149 138 123 132 148 141 132 124 123 119 121 118 105 85 71 58 46 36 50
187 188 190 189 186 186 184 177 173 157 161 157 151 161 166 165 164 173 167 162 162 157 151 154 159 150 132 157 192 184 172 170 159 146 149 141 133 129 97 59 46 31 20
197 194 194 197 194 189 177 160 138 131 142 162 169 172 175 176 168 169 167 161 160 164 157 159 171 172 156 149 216 257 223 185 149 161 168 179 171 172 160 83 17 6 4
202 200 198 193 191 185 177 176 172 180 184 185 174 169 167 175 171 164 165 163 163 161 160 165 167 166 168 166 162 271 317 355 221 178 173 177 196 235 259 261 255 287 338
203 195 194 191 187 183 185 185 185 189 184 164 162 162 165 168 170 165 165 163 164 165 164 163 163 164 176 182 177 180 189 211 245 246 218 202 214 222 257 268 257 256 279
203 194 191 189 188 186 188 189 192 188 177 167 170 170 172 167 167 167 166 169 164 164 167 164 161 164 167 172 179 194 209 218 212 233 250 249 258 245 260 251 249 255 267